sat.trackr.live / text

‹ back to catalog

YAOGAN-35 05A

NORAD 53760 · 2022-109A

PAYLOAD ACTIVE UNKNOWN

§ Identity

Operator
Country
PRC
Launch date
2022-09-06
Launch site
XICLF
Launch vehicle
Mass (kg)
RCS (m²)

External: N2YO · Heavens-Above · Gunter

§ Orbital elements

Epoch: 2026-05-25T05:59:25.130688Z

Period
94.54 min
Inclination
35.0057°
Eccentricity
0.0004097
Mean motion
15.23134508 rev/d
Perigee alt
493.6 km
Apogee alt
499.2 km
Semi-major
6,874.5 km
B*
3.4086e-4
RAAN
123.1845°
Arg perigee
116.0382°
Mean anomaly
244.0755°
Rev number
20,711

§ Raw data

YAOGAN-35 05A1 53760U 22109A   26145.24959642  .00008217  00000+0  34086-3 0  99952 53760  35.0057 123.1845 0004097 116.0382 244.0755 15.23134508207118

JSON: /api/v1/satellites/53760 · /tle

For live sub-satellite position, see the globe view (requires WebGL).

§ Visibility from observer

Set your observer location to see the next 7 days of passes ≥ 10°. The values pass through the URL so the page stays shareable.

No JS? Fill the form by hand. The geolocation button needs JavaScript.